This is the latest recevied weather packets stored in our database for station/object OK1VCF-8. If no packets are shown the sender has not sent any weather packets the latest 10 day(s).
| Time | Temp. | Humidity | Pressure | Rain* | Wind** | Luminosity | Snow |
|---|---|---|---|---|---|---|---|
| 1777750854 | 15.56° C | 44% | 1019.4 hPa | - | - | - | - |
| 1777750415 | 16.11° C | 43% | 1019.4 hPa | - | - | - | - |
| 1777749976 | 16.67° C | 42% | 1019.4 hPa | - | - | - | - |
| 1777749537 | 16.67° C | 42% | 1019.4 hPa | - | - | - | - |
| 1777749099 | 16.67° C | 42% | 1019.4 hPa | - | - | - | - |
| 1777748663 | 16.67° C | 40% | 1019.4 hPa | - | - | - | - |
| 1777748059 | 17.78° C | 39% | 1019.3 hPa | - | - | - | - |
| 1777747621 | 17.78° C | 38% | 1019.2 hPa | - | - | - | - |
| 1777747182 | 18.33° C | 38% | 1019.2 hPa | - | - | - | - |
| 1777746744 | 18.89° C | 36% | 1019.3 hPa | - | - | - | - |
| 1777746306 | 19.44° C | 34% | 1019.2 hPa | - | - | - | - |
| 1777745868 | 20° C | 34% | 1019.2 hPa | - | - | - | - |
| 1777745431 | 20° C | 34% | 1019.2 hPa | - | - | - | - |
| 1777744992 | 20° C | 34% | 1019.2 hPa | - | - | - | - |
| 1777744551 | 20.56° C | 33% | 1019.2 hPa | - | - | - | - |
| 1777744112 | 21.11° C | 32% | 1019.3 hPa | - | - | - | - |
| 1777743671 | 21.11° C | 32% | 1019.3 hPa | - | - | - | - |
| 1777743231 | 21.11° C | 30% | 1019.3 hPa | - | - | - | - |
| 1777742792 | 21.67° C | 30% | 1019.4 hPa | - | - | - | - |
| 1777742353 | 22.22° C | 29% | 1019.4 hPa | - | - | - | - |
| 1777741914 | 22.22° C | 28% | 1019.4 hPa | - | - | - | - |
| 1777741311 | 22.78° C | 27% | 1019.6 hPa | - | - | - | - |
| 1777740871 | 23.33° C | 26% | 1019.6 hPa | - | - | - | - |
| 1777740434 | 25° C | 23% | 1019.6 hPa | - | - | - | - |
| 1777739995 | 31.11° C | 16% | 1019.6 hPa | - | - | - | - |
* Rain since midnight (hover to see other rain measurements)
** Current wind speed in m/s (hover to see current wind gust speed)